Regional Weather Roundup
Issued by NWS

Home | Current Version | Previous Version | Text Only | Print | Product List | Glossary Off
Versions: 1 2 3 4 5 6 7 8 9 10 11 12 13 14 15 16 17 18 19 20 21 22 23 24 25 26 27 28 29 30 31 32 33 34 35 36 37 38 39 40 41 42 43 44 45 46 47 48 49 50

000
ASUS43 KLSX 292107
RWRMO

WEATHER SUMMARY FOR MISSOURI
NATIONAL WEATHER SERVICE SPRINGFIELD MO
400 PM CDT WED JUL 29 2015

NOTE: "FAIR" INDICATES FEW OR NO CLOUDS BELOW 12,000 FEET WITH NO
       SIGNIFICANT WEATHER AND/OR OBSTRUCTIONS TO VISIBILITY.
       CURRENT SKY AND/OR WEATHER CONDITIONS ARE NOT AVAILABLE FOR
       CHILLICOTHE AND FARMINGTON.

MOZ001>031-035>038-043-044-053-054-292200-
...NORTHERN AND WESTERN MISSOURI...

CITY           SKY/WX    TMP DP  RH WIND       PRES   REMARKS
KANSAS CTY INT PTSUNNY   83  65  54 NE10      30.13F
KANSAS C DTWN  PTSUNNY   88  66  48 N7        30.11F HX  90
LEE`S SUMMIT   MOSUNNY   85  67  54 NE9       30.14F
ST JOSEPH      CLOUDY    81  66  60 N7        30.13F
CHILLICOTHE      N/A     86  64  47 N7        30.14F
KIRKSVILLE     SUNNY     84  60  44 NW10      30.14F

$$
MOZ066>068-077>081-088>096-101>105-292200-
...SOUTHWEST MISSOURI...

CITY           SKY/WX    TMP DP  RH WIND       PRES   REMARKS
SPRINGFIELD    PTSUNNY   89  75  63 N18       30.08S HX  99
JOPLIN         CLOUDY    94  74  52 N9        30.06S HX 104

$$
MOZ032>034-039>042-045>050-055>058-069>072-292200-
...CENTRAL MISSOURI...

CITY           SKY/WX    TMP DP  RH WIND       PRES   REMARKS
COLUMBIA       SUNNY     87  63  44 N10       30.11F
JEFFERSON CITY SUNNY     87  59  38 N10       30.08F
ROLLA          SUNNY     86  68  54 N8G17     30.08F
SEDALIA        SUNNY     87  64  46 NE12      30.13S
WHITEMAN AFB   MOSUNNY   87  63  43 NE10      30.12S
WARRENSBURG    SUNNY     82  68  61 N7        30.12F
OSAGE BEACH    SUNNY     88  68  51 N8        30.10F HX  91

$$
MOZ051-052-059>065-292200-
...EAST CENTRAL MISSOURI...

CITY           SKY/WX    TMP DP  RH WIND       PRES   REMARKS
ST LOUIS INTL  MOSUNNY   89  73  59 NW13G20   30.05F HX  97
SPIRIT OF STL  MOSUNNY   88  72  58 N7        30.05S HX  94
ST CHARLES     MOSUNNY   88  73  61 N13       30.04F HX  95

$$
MOZ072>076-082>087-097>100-106>115-292200-
...SOUTH CENTRAL AND SOUTHEAST MISSOURI...

CITY           SKY/WX    TMP DP  RH WIND       PRES   REMARKS
CAPE GIRARDEAU TSTM      84  76  76 S6        29.96S HX  93
FARMINGTON     MOSUNNY   88  73  62 N12       30.08F HX  96
POPLAR BLUFF   SUNNY     97  74  47 VRB7      29.95F HX 108
WEST PLAINS    SUNNY     92  74  55 NW6       30.06F HX 101

$$



USA.gov is the U.S. government's official web portal to all federal, state and local government web resources and services.